Weather in Bol'shaya Irba

Russia / Krasnoyarsk Krai     54°04′52″N   92°56′12″E
temp.,
°C
wind,
m/s
gust,
m/s
humid.,
%
clouds,
%
prec.,
mm/h
press.,
hPa
HPBL,
m
12 may, wed
wed1201:00+7ne2266100 0.0 101338
04:00+5ne2173100 0.0 101313
07:00+8ene1164100 0.0 1014112
10:00+15ene1242100 0.0 1013707
13:00+19e0330100 0.0 10112321
16:00+19n2326100 0.0 10102864
19:00+15nne483645 0.0 1012857
22:00+9n39470 0.0 1014283
13 may, thu
thu1301:00+4n23640 0.0 101554
04:00+3nne22710 0.0 101621
07:00+6e00580 0.0 1017183
10:00+13sw11380 0.0 1016916
13:00+16w12270 0.0 10141564
16:00+17wsw222539 0.0 10121841
19:00+15sw233538 0.0 1012108
22:00+8se1148100 0.0 101310
14 may, fri
fri1401:00+7e1154100 0.0 101310
04:00+5e116299 0.0 101210
07:00+8e125523 0.0 1012138
10:00+15sse2339100 0.0 1011718
13:00+18sw3538100 0.0 10092021
16:00+12nw81270100 0.1 1010736
19:00+9nw4976100 1.6 1016943
22:00+7nw5108326 0.2 1020648
15 may, sat
sat1501:00+4wnw38865 0.2 1023322
04:00+2wsw1191100 0.0 102516
07:00+5ssw247097 0.0 1026283
10:00+9sw4547100 0.0 10261560
13:00+12sw4645100 0.0 10241774
16:00+12w1251100 0.0 1023238
19:00+11se1156100 0.0 102317
22:00+9ese1167100 0.0 102315
16 may, sun
sun1601:00+7ese1180100 0.0 102318
04:00+6ese118479 0.0 102217
07:00+10se127294 0.0 1021182
10:00+15s265284 0.0 1019688
13:00+16sw3653100 0.0 1016913
16:00+18wnw2550100 0.0 10141285
19:00+14sw287461 0.0 1014596
22:00+10se21958 0.0 101419